Location: Hains Lake
(37.8540°N, 99.8578°W)
Time: 17:02:20
(UTC+00:00)

Courier 1B Rocket - Pass Details

Date: 09 December 2021
Orbit: 920 x 1202 km, 28.2° (Epoch: 25 January)

Event Time Altitude Azimuth Distance (km) Brightness Sun altitude
Rises 03:08:29 0° 234° (SW) 3,860 8.6 -44.3°
Reaches altitude 10° 03:11:40 10° 224° (SW) 2,856 7.7 -44.9°
Enters shadow 03:12:13 12° 221° (SW) 2,695 7.6 -45.0°
